AirNav   Phillips 66 Aviation Fuel
 
 630 users online  

WS42 Owen-Withee Airport
Withee, Wisconsin, USA

GOING TO WITHEE?


FAA INFORMATION EFFECTIVE 12 OCTOBER 2017

Location

FAA Identifier: WS42
Lat/Long: 44-56-59.8860N / 090-36-00.4870W
44-56.998100N / 090-36.008117W
44.9499683 / -90.6001353
(estimated)
Elevation: 1286 ft. / 392 m (estimated)
Variation: 01E (1985)
From city: 1 mile S of WITHEE, WI
Time zone: UTC -5 (UTC -6 during Standard Time)
Zip code: 54498

Airport Operations

Airport use: Private use. Permission required prior to landing
Activation date: 06/1987
Control tower: no
ARTCC: MINNEAPOLIS CENTER
FSS: GREEN BAY FLIGHT SERVICE STATION
Attendance: UNATNDD
Wind indicator: yes
Segmented circle: no

Airport Communications

WX AWOS-3 at MDZ (16 nm NE): 119.025 (715-678-6030)

Nearby radio navigation aids

VOR radial/distance  VOR name  Freq  Var
EAUr081/37.4EAU CLAIRE VORTAC112.9004E

 
NDB name  Hdg/Dist  Freq  Var  ID
NEILLSVILLE352/23.836801WVIQ ...- .. --.-
MARSHFIELD317/25.539100EMFI -- ..-. ..
RUSK COUNTY153/37.235600WRCX .-. -.-. -..-

Airport Services

Airframe service: NONE
Powerplant service: NONE

Runway Information

Runway E/W

Dimensions: 2600 x 100 ft. / 792 x 30 m
Surface: turf
RUNWAY E  RUNWAY W
Traffic pattern: leftleft
Obstructions: pline, marked, 40 ft. from runwaynone

Airport Ownership and Management from official FAA records

Ownership: Privately-owned
Owner: ROLAND MISFELDT
W5799 OAK RD
WITHEE, WI 54498
Phone 715-229-4482
Manager: Phone 715-229-4160

Airport Operational Statistics

Aircraft based on the field: 2
Single engine airplanes: 2
    

Additional Remarks

OWNER DESIRES ARPT NOT BE CHARTED.

Instrument Procedures

There are no published instrument procedures at WS42.

Some nearby airports with instrument procedures:

KMDZ - Taylor County Airport (16 nm NE)
KVIQ - Neillsville Municipal Airport (24 nm S)
KMFI - Marshfield Municipal Airport (26 nm SE)
KRCX - Rusk County Airport (37 nm NW)
KEAU - Chippewa Valley Regional Airport (38 nm W)
 
Loc | Ops | Rwys | IFR | FBO | Links
Com | Nav | Svcs | Stats | Notes


 
Area around WS42 (Owen-Withee Airport)
 
Road maps at: MapQuest Bing Google
 
Aerial photo
No photo
 
Sectional chart

 
Airport distance calculator
Flying to Owen-Withee Airport? Find the distance to fly.

From to WS42

Sunrise and sunset
Times for 23-Oct-2017
 Local
(UTC-5)
 Zulu
(UTC)
Morning civil twilight07:0012:00
Sunrise07:3012:30
Sunset18:0423:04
Evening civil twilight18:3423:34

Current date and time
Zulu (UTC)  24-Oct-2017 04:18:10
Local (UTC-5)  23-Oct-2017 23:18:10
 
METAR
KMDZ 
16nm NE 
240355Z AUTO 31012G16KT 10SM RA OVC008 07/06 A2964 RMK AO2 P0005 T00710063
KMFI 
26nm SE 
240354Z AUTO 33014G23KT 8SM -RA BKN014 OVC044 08/06 A2963 RMK AO2 SLP038 P0002 T00830061 TSNO
TAF
KEAU 
37nm W 
231734Z 2318/2418 26010KT P6SM BKN120 FM232000 29012G18KT P6SM BKN040 FM240600 33018G30KT P6SM -RA BKN020
KCWA 
41nm E 
231721Z 2318/2418 16008KT P6SM BKN100 BKN250 FM232100 26006KT P6SM VCSH SCT050 BKN090 FM240000 31007KT P6SM -RA SCT025 OVC050 TEMPO 2402/2404 5SM -RA BR BKN025 FM240400 31012G18KT 5SM -RA BR BKN020 OVC040 FM240800 31014G24KT 4SM -RA BR OVC012 FM241400 31019G32KT P6SM VCSH SCT015 OVC030 TEMPO 2414/2418 4SM -RA BR BKN015
KAUW 
42nm E 
231721Z 2318/2418 17008KT P6SM BKN100 BKN250 FM232100 26006KT P6SM VCSH SCT050 BKN090 FM240000 31007KT P6SM -RA SCT025 OVC050 TEMPO 2402/2404 5SM -RA BR BKN025 FM240400 31012G18KT 5SM -RA BR BKN020 OVC040 FM240800 31014G24KT 4SM -RA BR OVC012 FM241400 31019G32KT P6SM VCSH SCT015 OVC030 TEMPO 2414/2418 4SM -RA BR BKN015
NOTAMs
Click for the latest NOTAMs
NOTAMs are issued by the DoD/FAA and will open in a separate window not controlled by AirNav.

 

 
 

Would you like to see your business listed on this page?

 If your business provides an interesting product or service to pilots, flight crews, aircraft, or users of the Owen-Withee Airport, you should consider listing it here.  To start the listing process, click on the button below
 
Add a business
 

Other Pages about Owen-Withee Airport

Update a link
 
Copyright © AirNav, LLC. All rights reserved. Privacy Policy  Contact